Location: Ebenezer
(18.2167°N, 63.0667°W)
Time: 20:52:57
(UTC+00:00)

Centaur D-1AR AC-39 - Pass Details

Date: 26 January 2020
Orbit: 576 x 36205 km, 21.9° (Epoch: 22 February)

Event Time Altitude Azimuth Distance (km) Brightness Sun altitude
Rises 13:33:35 0° 241° (WSW) 12,005 7.9 34.0°
Reaches altitude 10° 13:43:32 10° 233° (SW) 13,579 8.3 35.8°
Maximum altitude 23:32:12 83° 347° (NNW) 2,284 4.3 -21.1°
Enters shadow 23:36:20 34° 73° (ENE) 2,230 3.8 -22.1°
